Time,TemperatureF,DewpointF,PressureIn,WindDirection,WindDirectionDegrees,WindSpeedMPH,WindSpeedGustMPH,Humidity,HourlyPrecipIn,Conditions,Clouds,dailyrainin,SoftwareType,DateUTC
2013-02-07 00:00:00,27.4,25.9,30.20,NE,45,0.0,0.0,94,0.00,,,0.04,VWS V12.08,2013-02-07 05:00:00,
2013-02-07 00:01:00,27.4,25.9,30.20,NE,45,0.0,0.0,94,0.00,,,0.00,VWS V12.08,2013-02-07 05:01:00,
2013-02-07 00:06:00,27.2,25.7,30.20,NE,45,0.0,0.0,94,0.00,,,0.00,VWS V12.08,2013-02-07 05:06:00,
2013-02-07 00:11:00,27.2,25.7,30.20,NE,45,0.0,0.0,94,0.00,,,0.00,VWS V12.08,2013-02-07 05:11:00,
2013-02-07 00:16:00,27.0,25.5,30.20,NE,45,0.0,0.0,94,0.00,,,0.00,VWS V12.08,2013-02-07 05:16:00,
2013-02-07 00:21:00,26.8,25.3,30.20,NE,45,0.0,0.0,94,0.00,,,0.00,VWS V12.08,2013-02-07 05:21:00,
2013-02-07 00:26:00,26.8,25.3,30.20,NE,45,0.0,0.0,94,0.00,,,0.00,VWS V12.08,2013-02-07 05:26:00,
2013-02-07 00:31:00,27.2,25.7,30.20,NE,45,0.0,0.0,94,0.00,,,0.00,VWS V12.08,2013-02-07 05:31:00,
2013-02-07 00:36:00,27.5,26.3,30.20,NE,45,0.0,0.0,95,0.00,,,0.00,VWS V12.08,2013-02-07 05:36:00,
2013-02-07 00:41:00,27.4,26.1,30.20,NE,45,0.0,0.0,95,0.00,,,0.00,VWS V12.08,2013-02-07 05:41:00,
2013-02-07 00:46:00,27.0,25.5,30.20,NE,45,0.0,0.0,94,0.00,,,0.00,VWS V12.08,2013-02-07 05:46:00,
2013-02-07 00:51:00,26.8,25.3,30.20,NE,45,0.0,0.0,94,0.00,,,0.00,VWS V12.08,2013-02-07 05:51:00,
2013-02-07 00:56:00,27.0,25.5,30.20,NE,45,0.0,0.0,94,0.00,,,0.00,VWS V12.08,2013-02-07 05:56:00,
2013-02-07 01:01:00,27.5,26.3,30.20,NE,45,0.0,0.0,95,0.00,,,0.00,VWS V12.08,2013-02-07 06:01:00,
2013-02-07 01:06:00,27.5,26.3,30.20,NE,45,0.0,0.0,95,0.00,,,0.00,VWS V12.08,2013-02-07 06:06:00,
2013-02-07 01:11:00,27.2,25.9,30.20,NE,45,0.0,0.0,95,0.00,,,0.00,VWS V12.08,2013-02-07 06:11:00,
2013-02-07 01:16:00,27.2,25.9,30.20,NE,45,0.0,0.0,95,0.00,,,0.00,VWS V12.08,2013-02-07 06:16:00,
2013-02-07 01:21:00,27.4,26.1,30.20,NE,45,0.0,0.0,95,0.00,,,0.00,VWS V12.08,2013-02-07 06:21:00,
2013-02-07 01:26:00,27.4,26.1,30.20,NE,45,0.0,0.0,95,0.00,,,0.00,VWS V12.08,2013-02-07 06:26:00,
2013-02-07 01:31:00,27.5,26.3,30.20,NE,45,0.0,0.0,95,0.00,,,0.00,VWS V12.08,2013-02-07 06:31:00,
2013-02-07 01:36:00,27.5,26.3,30.17,NE,45,0.0,0.0,95,0.00,,,0.00,VWS V12.08,2013-02-07 06:36:00,
2013-02-07 01:41:00,27.5,26.3,30.17,NE,45,0.0,0.0,95,0.00,,,0.00,VWS V12.08,2013-02-07 06:41:00,
2013-02-07 01:46:00,27.4,26.1,30.17,NE,45,0.0,0.0,95,0.00,,,0.00,VWS V12.08,2013-02-07 06:46:00,
2013-02-07 01:51:00,27.2,25.9,30.17,NE,45,0.0,0.0,95,0.00,,,0.00,VWS V12.08,2013-02-07 06:51:00,
2013-02-07 01:56:00,26.6,25.1,30.17,NE,45,2.7,3.6,94,0.00,,,0.00,VWS V12.08,2013-02-07 06:56:00,
2013-02-07 02:01:00,25.9,24.4,30.17,NE,45,2.7,3.1,94,0.00,,,0.00,VWS V12.08,2013-02-07 07:01:00,
2013-02-07 02:06:00,25.4,23.4,30.17,NE,54,4.0,4.0,92,0.00,,,0.00,VWS V12.08,2013-02-07 07:06:00,
2013-02-07 02:11:00,25.0,22.8,30.17,NE,53,4.5,4.9,91,0.00,,,0.00,VWS V12.08,2013-02-07 07:11:00,
2013-02-07 02:16:00,25.2,23.0,30.17,NE,47,4.0,4.0,91,0.00,,,0.00,VWS V12.08,2013-02-07 07:16:00,
2013-02-07 02:21:00,25.6,23.8,30.17,NE,39,4.0,4.0,93,0.00,,,0.00,VWS V12.08,2013-02-07 07:21:00,
2013-02-07 02:26:00,25.7,24.3,30.17,NE,39,4.0,4.0,94,0.00,,,0.00,VWS V12.08,2013-02-07 07:26:00,
2013-02-07 02:31:00,25.9,24.7,30.17,NE,39,3.1,3.6,95,0.00,,,0.00,VWS V12.08,2013-02-07 07:31:00,
2013-02-07 02:36:00,26.1,24.9,30.17,NE,39,3.1,3.6,95,0.00,,,0.00,VWS V12.08,2013-02-07 07:36:00,
2013-02-07 02:41:00,26.5,25.5,30.17,NE,39,2.2,3.6,96,0.00,,,0.00,VWS V12.08,2013-02-07 07:41:00,
2013-02-07 02:46:00,26.5,25.5,30.17,NE,39,0.0,0.0,96,0.00,,,0.00,VWS V12.08,2013-02-07 07:46:00,
2013-02-07 02:51:00,26.8,25.8,30.17,NE,39,0.0,0.0,96,0.00,,,0.00,VWS V12.08,2013-02-07 07:51:00,
2013-02-07 02:56:00,27.2,26.4,30.17,NE,39,0.0,0.0,97,0.00,,,0.00,VWS V12.08,2013-02-07 07:56:00,
2013-02-07 03:01:00,27.4,26.6,30.17,NE,39,0.0,0.0,97,0.00,,,0.00,VWS V12.08,2013-02-07 08:01:00,
2013-02-07 03:06:00,27.4,26.6,30.14,NE,39,0.0,0.0,97,0.00,,,0.00,VWS V12.08,2013-02-07 08:06:00,
2013-02-07 03:11:00,27.5,26.8,30.14,NE,39,0.0,0.0,97,0.00,,,0.00,VWS V12.08,2013-02-07 08:11:00,
2013-02-07 03:16:00,27.5,26.8,30.14,NE,39,0.0,0.0,97,0.00,,,0.00,VWS V12.08,2013-02-07 08:16:00,
2013-02-07 03:21:00,27.7,27.0,30.14,NE,39,0.0,0.0,97,0.00,,,0.00,VWS V12.08,2013-02-07 08:21:00,
2013-02-07 03:26:00,27.7,27.0,30.14,NE,39,0.0,0.0,97,0.00,,,0.00,VWS V12.08,2013-02-07 08:26:00,
2013-02-07 03:31:00,27.9,27.2,30.14,NE,39,0.0,0.0,97,0.00,,,0.00,VWS V12.08,2013-02-07 08:31:00,
2013-02-07 03:36:00,27.9,27.2,30.14,NE,39,0.0,0.0,97,0.00,,,0.00,VWS V12.08,2013-02-07 08:36:00,
2013-02-07 03:41:00,27.9,27.2,30.14,NE,39,0.0,0.0,97,0.00,,,0.00,VWS V12.08,2013-02-07 08:41:00,
2013-02-07 03:46:00,28.1,27.1,30.14,NE,39,0.0,0.0,96,0.00,,,0.00,VWS V12.08,2013-02-07 08:46:00,
2013-02-07 03:51:00,28.1,27.1,30.14,NE,39,0.0,0.0,96,0.00,,,0.00,VWS V12.08,2013-02-07 08:51:00,
2013-02-07 03:56:00,27.7,26.7,30.14,NE,39,0.0,0.0,96,0.00,,,0.00,VWS V12.08,2013-02-07 08:56:00,
2013-02-07 04:01:00,27.4,26.4,30.14,NE,39,2.7,3.1,96,0.00,,,0.00,VWS V12.08,2013-02-07 09:01:00,
2013-02-07 04:06:00,26.8,25.6,30.14,NE,39,3.1,3.1,95,0.00,,,0.00,VWS V12.08,2013-02-07 09:06:00,
2013-02-07 04:11:00,26.6,25.1,30.14,NE,39,3.1,4.0,94,0.00,,,0.00,VWS V12.08,2013-02-07 09:11:00,
2013-02-07 04:16:00,26.5,24.7,30.14,NE,39,3.1,3.6,93,0.00,,,0.00,VWS V12.08,2013-02-07 09:16:00,
2013-02-07 04:21:00,26.5,24.7,30.14,NE,39,0.0,0.0,93,0.00,,,0.00,VWS V12.08,2013-02-07 09:21:00,
2013-02-07 04:26:00,26.5,24.7,30.14,NE,39,0.0,0.0,93,0.00,,,0.00,VWS V12.08,2013-02-07 09:26:00,
2013-02-07 04:31:00,26.5,24.7,30.14,NE,39,0.0,0.0,93,0.00,,,0.00,VWS V12.08,2013-02-07 09:31:00,
2013-02-07 04:36:00,26.6,24.9,30.14,NE,39,0.0,0.0,93,0.00,,,0.00,VWS V12.08,2013-02-07 09:36:00,
2013-02-07 04:41:00,26.6,24.9,30.14,NE,39,0.0,0.0,93,0.00,,,0.00,VWS V12.08,2013-02-07 09:41:00,
2013-02-07 04:46:00,26.6,24.9,30.14,NE,39,0.0,0.0,93,0.00,,,0.00,VWS V12.08,2013-02-07 09:46:00,
2013-02-07 04:51:00,26.6,24.9,30.14,NE,39,0.0,0.0,93,0.00,,,0.00,VWS V12.08,2013-02-07 09:51:00,
2013-02-07 04:56:00,26.6,24.9,30.14,NE,39,2.7,2.7,93,0.00,,,0.00,VWS V12.08,2013-02-07 09:56:00,
2013-02-07 05:01:00,26.5,24.7,30.14,NE,39,2.7,3.1,93,0.00,,,0.00,VWS V12.08,2013-02-07 10:01:00,
2013-02-07 05:06:00,26.5,24.7,30.14,NE,39,3.1,3.1,93,0.00,,,0.00,VWS V12.08,2013-02-07 10:06:00,
2013-02-07 05:11:00,26.5,24.7,30.14,NE,39,3.1,3.6,93,0.00,,,0.00,VWS V12.08,2013-02-07 10:11:00,
2013-02-07 05:16:00,26.5,24.7,30.14,NE,39,3.6,3.6,93,0.00,,,0.00,VWS V12.08,2013-02-07 10:16:00,
2013-02-07 05:21:00,26.5,24.7,30.14,NE,51,4.0,4.0,93,0.00,,,0.00,VWS V12.08,2013-02-07 10:21:00,
2013-02-07 05:26:00,26.5,25.0,30.14,NE,51,3.6,4.0,94,0.00,,,0.00,VWS V12.08,2013-02-07 10:26:00,
2013-02-07 05:31:00,26.6,25.1,30.14,ENE,60,3.1,3.6,94,0.00,,,0.00,VWS V12.08,2013-02-07 10:31:00,
2013-02-07 05:36:00,26.8,25.6,30.14,NE,47,3.6,3.6,95,0.00,,,0.00,VWS V12.08,2013-02-07 10:36:00,
2013-02-07 05:41:00,26.8,25.6,30.14,NE,39,3.6,4.0,95,0.00,,,0.00,VWS V12.08,2013-02-07 10:41:00,
2013-02-07 05:47:00,26.8,25.6,30.14,NE,55,2.7,3.1,95,0.00,,,0.00,VWS V12.08,2013-02-07 10:47:00,
2013-02-07 05:52:00,27.0,25.8,30.17,NE,42,4.0,4.9,95,0.00,,,0.00,VWS V12.08,2013-02-07 10:52:00,
2013-02-07 05:57:00,27.0,26.0,30.17,NE,38,4.9,4.9,96,0.00,,,0.00,VWS V12.08,2013-02-07 10:57:00,
2013-02-07 06:02:00,27.0,25.8,30.17,NE,49,5.4,5.4,95,0.00,,,0.00,VWS V12.08,2013-02-07 11:02:00,
2013-02-07 06:07:00,27.0,26.0,30.17,NE,46,5.4,7.2,96,0.00,,,0.00,VWS V12.08,2013-02-07 11:07:00,
2013-02-07 06:12:00,26.8,25.8,30.17,NE,45,5.4,6.3,96,0.00,,,0.00,VWS V12.08,2013-02-07 11:12:00,
2013-02-07 06:17:00,27.0,26.0,30.17,NE,42,4.0,5.4,96,0.00,,,0.00,VWS V12.08,2013-02-07 11:17:00,
2013-02-07 06:22:00,27.2,26.4,30.17,NE,38,4.9,6.3,97,0.00,,,0.00,VWS V12.08,2013-02-07 11:22:00,
2013-02-07 06:27:00,27.2,26.4,30.17,NE,36,4.0,4.9,97,0.00,,,0.00,VWS V12.08,2013-02-07 11:27:00,
2013-02-07 06:32:00,27.4,26.9,30.17,NE,36,3.6,5.4,98,0.00,,,0.00,VWS V12.08,2013-02-07 11:32:00,
2013-02-07 06:37:00,27.4,26.9,30.17,NE,37,5.4,6.3,98,0.00,,,0.00,VWS V12.08,2013-02-07 11:37:00,
2013-02-07 06:42:00,27.5,27.0,30.17,NE,35,5.8,5.8,98,0.00,,,0.00,VWS V12.08,2013-02-07 11:42:00,
2013-02-07 06:47:00,27.5,27.0,30.17,NNE,30,4.9,5.8,98,0.00,,,0.00,VWS V12.08,2013-02-07 11:47:00,
2013-02-07 06:52:00,27.5,27.0,30.17,NNE,12,5.4,6.3,98,0.00,,,0.00,VWS V12.08,2013-02-07 11:52:00,
2013-02-07 06:57:00,27.7,27.2,30.17,NE,40,4.9,5.8,98,0.00,,,0.00,VWS V12.08,2013-02-07 11:57:00,
2013-02-07 07:02:00,27.7,27.2,30.17,NNE,23,4.9,5.8,98,0.00,,,0.00,VWS V12.08,2013-02-07 12:02:00,
2013-02-07 07:07:00,27.7,27.0,30.17,North,9,5.4,5.4,97,0.00,,,0.00,VWS V12.08,2013-02-07 12:07:00,
2013-02-07 07:12:00,27.7,26.7,30.17,NE,35,4.0,4.9,96,0.00,,,0.00,VWS V12.08,2013-02-07 12:12:00,
2013-02-07 07:17:00,27.7,26.7,30.17,NNE,30,5.4,6.3,96,0.00,,,0.00,VWS V12.08,2013-02-07 12:17:00,
2013-02-07 07:22:00,27.7,26.7,30.17,NNE,29,5.8,5.8,96,0.00,,,0.00,VWS V12.08,2013-02-07 12:22:00,
2013-02-07 07:27:00,27.7,26.5,30.17,NNE,30,5.8,6.3,95,0.00,,,0.00,VWS V12.08,2013-02-07 12:27:00,
2013-02-07 07:32:00,27.7,26.5,30.17,NNE,29,3.6,4.5,95,0.00,,,0.00,VWS V12.08,2013-02-07 12:32:00,
2013-02-07 07:37:00,27.7,26.5,30.17,NNE,30,4.0,5.4,95,0.00,,,0.00,VWS V12.08,2013-02-07 12:37:00,
2013-02-07 07:42:00,27.7,26.5,30.17,NE,49,5.8,5.8,95,0.00,,,0.00,VWS V12.08,2013-02-07 12:42:00,
2013-02-07 07:47:00,27.9,26.7,30.17,NNE,17,4.0,5.8,95,0.00,,,0.00,VWS V12.08,2013-02-07 12:47:00,
2013-02-07 07:52:00,27.9,26.7,30.17,NNE,26,3.6,4.9,95,0.00,,,0.00,VWS V12.08,2013-02-07 12:52:00,
2013-02-07 07:57:00,28.1,26.6,30.17,ENE,62,4.0,4.0,94,0.00,,,0.00,VWS V12.08,2013-02-07 12:57:00,
2013-02-07 08:02:00,28.1,26.6,30.17,NNE,29,4.0,5.4,94,0.00,,,0.00,VWS V12.08,2013-02-07 13:02:00,
2013-02-07 08:07:00,28.3,26.8,30.17,NE,38,2.7,4.5,94,0.00,,,0.00,VWS V12.08,2013-02-07 13:07:00,
2013-02-07 08:12:00,28.4,26.7,30.17,NE,36,3.6,4.0,93,0.00,,,0.00,VWS V12.08,2013-02-07 13:12:00,
2013-02-07 08:17:00,28.4,26.4,30.17,NE,36,3.1,3.6,92,0.00,,,0.00,VWS V12.08,2013-02-07 13:17:00,
2013-02-07 08:22:00,28.8,26.8,30.17,NE,36,0.0,4.0,92,0.00,,,0.00,VWS V12.08,2013-02-07 13:22:00,
2013-02-07 08:27:00,29.2,27.1,30.17,NE,36,2.2,3.6,92,0.00,,,0.00,VWS V12.08,2013-02-07 13:27:00,
2013-02-07 08:32:00,29.7,27.7,30.17,NE,36,0.0,0.0,92,0.00,,,0.00,VWS V12.08,2013-02-07 13:32:00,
2013-02-07 08:37:00,30.1,27.8,30.17,NE,36,0.0,0.0,91,0.00,,,0.00,VWS V12.08,2013-02-07 13:37:00,
2013-02-07 08:42:00,30.2,27.9,30.17,NE,36,0.0,0.0,91,0.00,,,0.00,VWS V12.08,2013-02-07 13:42:00,
2013-02-07 08:47:00,30.4,28.1,30.17,NE,36,0.0,0.0,91,0.00,,,0.00,VWS V12.08,2013-02-07 13:47:00,
2013-02-07 08:52:00,30.6,28.3,30.17,NE,36,0.0,0.0,91,0.00,,,0.00,VWS V12.08,2013-02-07 13:52:00,
2013-02-07 08:57:00,31.0,28.4,30.17,NE,36,0.0,0.0,90,0.00,,,0.00,VWS V12.08,2013-02-07 13:57:00,
2013-02-07 09:02:00,31.3,28.5,30.17,NE,36,0.0,0.0,89,0.00,,,0.00,VWS V12.08,2013-02-07 14:02:00,
2013-02-07 09:07:00,31.5,28.6,30.17,NE,36,0.0,0.0,89,0.00,,,0.00,VWS V12.08,2013-02-07 14:07:00,
2013-02-07 09:12:00,31.7,28.8,30.17,NE,36,0.0,0.0,89,0.00,,,0.00,VWS V12.08,2013-02-07 14:12:00,
2013-02-07 09:17:00,32.0,28.9,30.17,NE,36,0.0,0.0,88,0.00,,,0.00,VWS V12.08,2013-02-07 14:17:00,
2013-02-07 09:22:00,32.6,29.1,30.17,NE,36,0.0,0.0,87,0.00,,,0.00,VWS V12.08,2013-02-07 14:22:00,
2013-02-07 09:27:00,32.8,29.3,30.17,NE,36,0.0,0.0,87,0.00,,,0.00,VWS V12.08,2013-02-07 14:27:00,
2013-02-07 09:32:00,32.8,28.8,30.17,NE,36,0.0,0.0,85,0.00,,,0.00,VWS V12.08,2013-02-07 14:32:00,
2013-02-07 09:37:00,33.1,28.5,30.17,NE,36,0.0,0.0,83,0.00,,,0.00,VWS V12.08,2013-02-07 14:37:00,
2013-02-07 09:42:00,32.9,27.1,30.17,NE,36,2.7,3.1,79,0.00,,,0.00,VWS V12.08,2013-02-07 14:42:00,
2013-02-07 09:47:00,32.8,25.4,30.17,NE,36,2.7,2.7,74,0.00,,,0.00,VWS V12.08,2013-02-07 14:47:00,
2013-02-07 09:52:00,33.5,26.1,30.17,NE,36,0.0,0.0,74,0.00,,,0.00,VWS V12.08,2013-02-07 14:52:00,
2013-02-07 09:57:00,33.8,26.4,30.17,NE,36,0.0,0.0,74,0.00,,,0.00,VWS V12.08,2013-02-07 14:57:00,
2013-02-07 10:02:00,34.4,26.3,30.17,NE,36,0.0,0.0,72,0.00,,,0.00,VWS V12.08,2013-02-07 15:02:00,
2013-02-07 10:07:00,34.6,26.1,30.14,NE,36,3.1,3.1,71,0.00,,,0.00,VWS V12.08,2013-02-07 15:07:00,
2013-02-07 10:12:00,34.6,25.8,30.14,NE,36,0.0,0.0,70,0.00,,,0.00,VWS V12.08,2013-02-07 15:12:00,
2013-02-07 10:17:00,34.6,25.5,30.14,NE,36,0.0,0.0,69,0.00,,,0.00,VWS V12.08,2013-02-07 15:17:00,
2013-02-07 10:22:00,34.9,26.1,30.14,NE,36,0.0,0.0,70,0.00,,,0.00,VWS V12.08,2013-02-07 15:22:00,
2013-02-07 10:27:00,35.1,26.3,30.14,NE,36,0.0,0.0,70,0.00,,,0.00,VWS V12.08,2013-02-07 15:27:00,
2013-02-07 10:32:00,34.9,25.1,30.14,NE,36,2.7,3.1,67,0.00,,,0.00,VWS V12.08,2013-02-07 15:32:00,
2013-02-07 10:37:00,34.7,24.6,30.14,NE,36,2.2,2.7,66,0.00,,,0.00,VWS V12.08,2013-02-07 15:37:00,
2013-02-07 10:42:00,35.1,25.6,30.14,NE,36,0.0,0.0,68,0.00,,,0.00,VWS V12.08,2013-02-07 15:42:00,
2013-02-07 10:47:00,35.6,25.4,30.14,NE,36,0.0,3.6,66,0.00,,,0.00,VWS V12.08,2013-02-07 15:47:00,
2013-02-07 10:52:00,35.6,25.0,30.14,NE,36,0.0,3.1,65,0.00,,,0.00,VWS V12.08,2013-02-07 15:52:00,
2013-02-07 10:57:00,36.2,25.6,30.14,SE,139,0.0,0.0,65,0.00,,,0.00,VWS V12.08,2013-02-07 15:57:00,
2013-02-07 11:02:00,36.7,25.3,30.14,SSE,158,2.7,4.0,63,0.00,,,0.00,VWS V12.08,2013-02-07 16:02:00,
2013-02-07 11:07:00,37.6,24.2,30.11,SSE,151,0.0,4.9,58,0.00,,,0.00,VWS V12.08,2013-02-07 16:07:00,
2013-02-07 11:12:00,39.1,23.4,30.11,South,184,0.0,3.6,53,0.00,,,0.00,VWS V12.08,2013-02-07 16:12:00,
2013-02-07 11:17:00,39.8,23.1,30.11,SSE,159,4.9,4.9,51,0.00,,,0.00,VWS V12.08,2013-02-07 16:17:00,
2013-02-07 11:22:00,40.1,22.5,30.11,SSE,162,4.9,4.9,49,0.00,,,0.00,VWS V12.08,2013-02-07 16:22:00,
2013-02-07 11:27:00,40.5,22.9,30.11,ESE,103,0.0,4.0,49,0.00,,,0.00,VWS V12.08,2013-02-07 16:27:00,
2013-02-07 11:32:00,41.0,23.4,30.11,South,184,0.0,0.0,49,0.00,,,0.00,VWS V12.08,2013-02-07 16:32:00,
2013-02-07 11:37:00,41.6,23.4,30.11,WSW,244,0.0,0.0,48,0.00,,,0.00,VWS V12.08,2013-02-07 16:37:00,
2013-02-07 11:42:00,41.8,23.5,30.11,East,79,3.6,4.9,48,0.00,,,0.00,VWS V12.08,2013-02-07 16:42:00,
2013-02-07 11:47:00,41.9,23.7,30.11,SE,144,2.2,3.6,48,0.00,,,0.00,VWS V12.08,2013-02-07 16:47:00,
2013-02-07 11:52:00,42.3,24.0,30.11,SSE,151,0.0,0.0,48,0.00,,,0.00,VWS V12.08,2013-02-07 16:52:00,
2013-02-07 11:57:00,42.5,22.6,30.11,NNW,335,0.0,5.4,45,0.00,,,0.00,VWS V12.08,2013-02-07 16:57:00,
2013-02-07 12:02:00,43.0,23.1,30.11,NE,45,4.0,5.4,45,0.00,,,0.00,VWS V12.08,2013-02-07 17:02:00,
2013-02-07 12:07:00,43.6,23.1,30.11,South,184,3.1,4.0,44,0.00,,,0.00,VWS V12.08,2013-02-07 17:07:00,
2013-02-07 12:12:00,44.1,23.0,30.11,NE,42,2.7,2.7,43,0.00,,,0.00,VWS V12.08,2013-02-07 17:12:00,
2013-02-07 12:17:00,44.5,23.9,30.11,NNE,14,0.0,0.0,44,0.00,,,0.00,VWS V12.08,2013-02-07 17:17:00,
2013-02-07 12:22:00,44.8,23.7,30.09,ESE,117,2.7,5.4,43,0.00,,,0.00,VWS V12.08,2013-02-07 17:22:00,
2013-02-07 12:27:00,45.4,23.6,30.09,SSE,162,0.0,0.0,42,0.00,,,0.00,VWS V12.08,2013-02-07 17:27:00,
2013-02-07 12:32:00,45.7,24.0,30.09,South,183,4.0,4.0,42,0.00,,,0.00,VWS V12.08,2013-02-07 17:32:00,
2013-02-07 12:37:00,46.1,23.7,30.09,SE,125,2.2,3.1,41,0.00,,,0.00,VWS V12.08,2013-02-07 17:37:00,
2013-02-07 12:42:00,46.3,26.1,30.09,NW,323,2.7,2.7,45,0.00,,,0.00,VWS V12.08,2013-02-07 17:42:00,
2013-02-07 12:47:00,46.1,23.7,30.09,NE,52,4.0,5.8,41,0.00,,,0.00,VWS V12.08,2013-02-07 17:47:00,
2013-02-07 12:52:00,46.3,23.3,30.06,ENE,64,0.0,4.9,40,0.00,,,0.00,VWS V12.08,2013-02-07 17:52:00,
2013-02-07 12:57:00,46.6,23.6,30.06,SE,146,6.3,6.3,40,0.00,,,0.00,VWS V12.08,2013-02-07 17:57:00,
2013-02-07 13:02:00,47.0,24.5,30.06,SSE,154,0.0,0.0,41,0.00,,,0.00,VWS V12.08,2013-02-07 18:02:00,
2013-02-07 13:07:00,47.5,25.0,30.06,SE,130,2.2,2.7,41,0.00,,,0.00,VWS V12.08,2013-02-07 18:07:00,
2013-02-07 13:12:00,47.9,24.1,30.06,SE,130,3.6,3.6,39,0.00,,,0.00,VWS V12.08,2013-02-07 18:12:00,
2013-02-07 13:17:00,47.9,24.1,30.06,NE,41,0.0,2.7,39,0.00,,,0.00,VWS V12.08,2013-02-07 18:17:00,
2013-02-07 13:22:00,47.9,23.5,30.06,East,100,5.4,5.4,38,0.00,,,0.00,VWS V12.08,2013-02-07 18:22:00,
2013-02-07 13:27:00,48.4,24.0,30.06,NE,48,0.0,5.4,38,0.00,,,0.00,VWS V12.08,2013-02-07 18:27:00,
2013-02-07 13:32:00,48.4,24.0,30.06,NNE,17,4.0,5.4,38,0.00,,,0.00,VWS V12.08,2013-02-07 18:32:00,
2013-02-07 13:37:00,49.0,24.5,30.06,ESE,110,0.0,0.0,38,0.00,,,0.00,VWS V12.08,2013-02-07 18:37:00,
2013-02-07 13:42:00,48.2,23.8,30.06,NNE,31,3.6,6.3,38,0.00,,,0.00,VWS V12.08,2013-02-07 18:42:00,
2013-02-07 13:47:00,48.8,24.3,30.06,ESE,113,3.6,6.3,38,0.00,,,0.00,VWS V12.08,2013-02-07 18:47:00,
2013-02-07 13:52:00,48.8,24.3,30.03,NNE,15,4.9,4.9,38,0.00,,,0.00,VWS V12.08,2013-02-07 18:52:00,
2013-02-07 13:57:00,49.1,24.6,30.03,East,81,3.1,3.6,38,0.00,,,0.00,VWS V12.08,2013-02-07 18:57:00,
2013-02-07 14:02:00,49.5,24.3,30.03,NNE,33,4.0,5.4,37,0.00,,,0.00,VWS V12.08,2013-02-07 19:02:00,
2013-02-07 14:07:00,49.5,24.3,30.03,NNE,19,2.2,2.7,37,0.00,,,0.00,VWS V12.08,2013-02-07 19:07:00,
2013-02-07 14:12:00,49.5,24.3,30.03,NNE,22,3.1,3.6,37,0.00,,,0.00,VWS V12.08,2013-02-07 19:12:00,
2013-02-07 14:17:00,49.0,23.8,30.03,NE,37,2.7,3.6,37,0.00,,,0.00,VWS V12.08,2013-02-07 19:17:00,
2013-02-07 14:22:00,48.4,23.4,30.03,ESE,108,4.0,5.4,37,0.00,,,0.00,VWS V12.08,2013-02-07 19:22:00,
2013-02-07 14:27:00,48.2,23.8,30.03,NNE,25,2.7,4.0,38,0.00,,,0.00,VWS V12.08,2013-02-07 19:27:00,
2013-02-07 14:32:00,48.1,23.7,30.03,NNE,25,2.2,2.2,38,0.00,,,0.00,VWS V12.08,2013-02-07 19:32:00,
2013-02-07 14:37:00,47.9,23.5,30.03,SE,136,2.2,3.6,38,0.00,,,0.00,VWS V12.08,2013-02-07 19:37:00,
2013-02-07 14:42:00,47.9,23.5,30.03,WNW,301,0.0,2.7,38,0.00,,,0.00,VWS V12.08,2013-02-07 19:42:00,
2013-02-07 14:47:00,48.1,23.7,30.03,WNW,301,0.0,0.0,38,0.00,,,0.00,VWS V12.08,2013-02-07 19:47:00,
2013-02-07 14:52:00,48.2,23.8,30.03,ENE,57,0.0,0.0,38,0.00,,,0.00,VWS V12.08,2013-02-07 19:52:00,
2013-02-07 14:57:00,48.1,23.7,30.03,NNE,22,2.2,4.0,38,0.00,,,0.00,VWS V12.08,2013-02-07 19:57:00,
2013-02-07 15:02:00,47.9,23.5,30.00,NNE,22,4.0,4.0,38,0.00,,,0.00,VWS V12.08,2013-02-07 20:02:00,
2013-02-07 15:07:00,47.3,23.6,30.00,NNE,29,3.6,4.0,39,0.00,,,0.00,VWS V12.08,2013-02-07 20:07:00,
2013-02-07 15:12:00,47.2,23.5,30.00,NNE,19,2.7,4.0,39,0.00,,,0.00,VWS V12.08,2013-02-07 20:12:00,
2013-02-07 15:17:00,47.2,23.5,30.00,NNE,32,2.7,2.7,39,0.00,,,0.00,VWS V12.08,2013-02-07 20:17:00,
2013-02-07 15:22:00,47.2,24.1,30.00,NNE,32,2.7,2.7,40,0.00,,,0.00,VWS V12.08,2013-02-07 20:22:00,
2013-02-07 15:27:00,47.0,23.9,30.00,NE,40,3.1,3.6,40,0.00,,,0.00,VWS V12.08,2013-02-07 20:27:00,
2013-02-07 15:32:00,47.3,24.2,30.00,NNE,21,2.7,4.0,40,0.00,,,0.00,VWS V12.08,2013-02-07 20:32:00,
2013-02-07 15:37:00,47.9,24.7,30.00,NNE,12,2.7,3.1,40,0.00,,,0.00,VWS V12.08,2013-02-07 20:37:00,
2013-02-07 15:42:00,47.5,24.4,30.00,NW,305,0.0,3.1,40,0.00,,,0.00,VWS V12.08,2013-02-07 20:42:00,
2013-02-07 15:47:00,47.0,23.9,30.00,NW,319,0.0,3.6,40,0.00,,,0.00,VWS V12.08,2013-02-07 20:47:00,
2013-02-07 15:52:00,46.6,24.2,30.00,NNE,15,3.6,4.0,41,0.00,,,0.00,VWS V12.08,2013-02-07 20:52:00,
2013-02-07 15:57:00,46.3,24.5,30.00,NNE,19,5.8,5.8,42,0.00,,,0.00,VWS V12.08,2013-02-07 20:57:00,
2013-02-07 16:02:00,45.9,24.1,30.00,NNE,20,4.9,4.9,42,0.00,,,0.00,VWS V12.08,2013-02-07 21:02:00,
2013-02-07 16:07:00,45.7,24.5,30.00,NNE,17,3.1,5.4,43,0.00,,,0.00,VWS V12.08,2013-02-07 21:07:00,
2013-02-07 16:12:00,45.5,25.5,30.00,NNE,32,4.0,4.0,45,0.00,,,0.00,VWS V12.08,2013-02-07 21:12:00,
2013-02-07 16:17:00,45.5,24.9,30.00,NE,56,4.0,4.0,44,0.00,,,0.00,VWS V12.08,2013-02-07 21:17:00,
2013-02-07 16:22:00,45.9,24.1,30.00,NNE,19,3.6,5.4,42,0.00,,,0.00,VWS V12.08,2013-02-07 21:22:00,
2013-02-07 16:27:00,45.7,24.5,30.00,NNE,22,4.0,5.8,43,0.00,,,0.00,VWS V12.08,2013-02-07 21:27:00,
2013-02-07 16:32:00,46.1,24.3,30.00,NNE,13,3.6,3.6,42,0.00,,,0.00,VWS V12.08,2013-02-07 21:32:00,
2013-02-07 16:37:00,45.9,24.7,30.00,NNE,27,2.7,3.1,43,0.00,,,0.00,VWS V12.08,2013-02-07 21:37:00,
2013-02-07 16:42:00,45.5,24.4,30.00,NNE,14,5.4,5.4,43,0.00,,,0.00,VWS V12.08,2013-02-07 21:42:00,
2013-02-07 16:47:00,45.5,24.9,30.00,NNE,21,3.6,4.0,44,0.00,,,0.00,VWS V12.08,2013-02-07 21:47:00,
2013-02-07 16:52:00,45.5,24.4,30.00,North,9,4.0,5.8,43,0.00,,,0.00,VWS V12.08,2013-02-07 21:52:00,
2013-02-07 16:57:00,45.5,24.4,30.00,NNE,20,3.6,4.0,43,0.00,,,0.00,VWS V12.08,2013-02-07 21:57:00,
2013-02-07 17:02:00,45.2,24.0,30.00,NE,36,4.9,8.1,43,0.00,,,0.00,VWS V12.08,2013-02-07 22:02:00,
2013-02-07 17:07:00,45.2,24.0,29.97,NNE,18,6.3,6.3,43,0.00,,,0.00,VWS V12.08,2013-02-07 22:07:00,
2013-02-07 17:12:00,45.0,24.4,29.97,North,1,6.3,6.3,44,0.00,,,0.00,VWS V12.08,2013-02-07 22:12:00,
2013-02-07 17:17:00,44.8,24.2,29.97,NNE,27,4.9,4.9,44,0.00,,,0.00,VWS V12.08,2013-02-07 22:17:00,
2013-02-07 17:22:00,44.8,24.2,29.97,North,9,5.4,6.3,44,0.00,,,0.00,VWS V12.08,2013-02-07 22:22:00,
2013-02-07 17:27:00,44.5,24.5,29.97,NE,41,5.4,5.4,45,0.00,,,0.00,VWS V12.08,2013-02-07 22:27:00,
2013-02-07 17:32:00,44.3,24.8,29.97,NE,34,3.1,3.6,46,0.00,,,0.00,VWS V12.08,2013-02-07 22:32:00,
2013-02-07 17:37:00,44.1,25.2,29.97,East,90,2.2,4.0,47,0.00,,,0.00,VWS V12.08,2013-02-07 22:37:00,
2013-02-07 17:42:00,43.9,25.5,29.97,NNE,23,2.7,6.3,48,0.00,,,0.00,VWS V12.08,2013-02-07 22:42:00,
2013-02-07 17:47:00,43.7,25.4,29.97,NNE,19,3.6,4.0,48,0.00,,,0.00,VWS V12.08,2013-02-07 22:47:00,
2013-02-07 17:52:00,43.6,25.2,30.00,NNE,21,3.1,3.6,48,0.00,,,0.00,VWS V12.08,2013-02-07 22:52:00,
2013-02-07 17:57:00,43.0,25.2,30.00,NE,36,5.8,5.8,49,0.00,,,0.00,VWS V12.08,2013-02-07 22:57:00,
2013-02-07 18:02:00,42.8,25.0,30.00,North,8,2.7,3.1,49,0.00,,,0.00,VWS V12.08,2013-02-07 23:02:00,
2013-02-07 18:07:00,42.3,24.5,30.00,NNE,17,2.7,3.1,49,0.00,,,0.00,VWS V12.08,2013-02-07 23:07:00,
2013-02-07 18:12:00,41.8,25.0,30.00,NNE,15,3.1,4.0,51,0.00,,,0.00,VWS V12.08,2013-02-07 23:12:00,
2013-02-07 18:17:00,41.2,24.9,29.97,NNE,23,2.7,3.6,52,0.00,,,0.00,VWS V12.08,2013-02-07 23:17:00,
2013-02-07 18:22:00,40.7,24.9,29.97,NE,49,4.0,4.0,53,0.00,,,0.00,VWS V12.08,2013-02-07 23:22:00,
2013-02-07 18:27:00,40.9,25.5,29.97,NNE,15,4.9,4.9,54,0.00,,,0.00,VWS V12.08,2013-02-07 23:27:00,
2013-02-07 18:32:00,41.4,25.6,29.97,NNE,19,4.9,5.8,53,0.00,,,0.00,VWS V12.08,2013-02-07 23:32:00,
2013-02-07 18:37:00,41.6,25.3,29.97,ENE,58,2.7,4.9,52,0.00,,,0.00,VWS V12.08,2013-02-07 23:37:00,
2013-02-07 18:42:00,41.8,25.4,29.97,North,8,5.4,5.4,52,0.00,,,0.00,VWS V12.08,2013-02-07 23:42:00,
2013-02-07 18:47:00,41.9,25.6,29.97,North,11,4.0,4.0,52,0.00,,,0.00,VWS V12.08,2013-02-07 23:47:00,
2013-02-07 18:52:00,41.8,25.4,29.97,NNE,16,3.6,5.4,52,0.00,,,0.00,VWS V12.08,2013-02-07 23:52:00,
2013-02-07 18:57:00,41.8,25.4,29.97,North,4,4.0,5.8,52,0.00,,,0.00,VWS V12.08,2013-02-07 23:57:00,
2013-02-07 19:02:00,41.6,25.3,29.97,NNE,26,4.0,4.0,52,0.00,,,0.00,VWS V12.08,2013-02-08 00:02:00,
2013-02-07 19:07:00,41.6,25.3,29.97,North,11,3.6,4.0,52,0.00,,,0.00,VWS V12.08,2013-02-08 00:07:00,
2013-02-07 19:12:00,41.4,25.6,29.97,NE,52,2.7,4.0,53,0.00,,,0.00,VWS V12.08,2013-02-08 00:12:00,
2013-02-07 19:17:00,41.4,25.6,29.97,NE,49,4.9,5.4,53,0.00,,,0.00,VWS V12.08,2013-02-08 00:17:00,
2013-02-07 19:22:00,41.4,25.6,29.97,North,8,2.7,5.4,53,0.00,,,0.00,VWS V12.08,2013-02-08 00:22:00,
2013-02-07 19:27:00,41.2,25.4,29.97,NE,47,2.7,3.6,53,0.00,,,0.00,VWS V12.08,2013-02-08 00:27:00,
2013-02-07 19:32:00,41.0,25.2,29.97,SSE,156,0.0,0.0,53,0.00,,,0.00,VWS V12.08,2013-02-08 00:32:00,
2013-02-07 19:37:00,41.2,25.9,29.97,North,9,0.0,0.0,54,0.00,,,0.00,VWS V12.08,2013-02-08 00:37:00,
2013-02-07 19:42:00,41.4,25.6,29.97,NW,310,0.0,0.0,53,0.00,,,0.00,VWS V12.08,2013-02-08 00:42:00,
2013-02-07 19:47:00,41.4,25.6,29.97,NW,310,0.0,0.0,53,0.00,,,0.00,VWS V12.08,2013-02-08 00:47:00,
2013-02-07 19:53:00,41.4,25.6,29.97,SE,142,0.0,0.0,53,0.00,,,0.00,VWS V12.08,2013-02-08 00:53:00,
2013-02-07 19:58:00,41.6,25.7,29.97,North,0,0.0,0.0,53,0.00,,,0.00,VWS V12.08,2013-02-08 00:58:00,
2013-02-07 20:03:00,41.8,25.9,29.97,NNW,335,0.0,0.0,53,0.00,,,0.00,VWS V12.08,2013-02-08 01:03:00,
2013-02-07 20:08:00,41.8,25.4,29.97,SE,125,0.0,0.0,52,0.00,,,0.00,VWS V12.08,2013-02-08 01:08:00,
2013-02-07 20:13:00,41.9,25.6,29.97,SSE,157,0.0,0.0,52,0.00,,,0.00,VWS V12.08,2013-02-08 01:13:00,
2013-02-07 20:18:00,41.8,25.9,29.97,West,259,0.0,0.0,53,0.00,,,0.00,VWS V12.08,2013-02-08 01:18:00,
2013-02-07 20:23:00,41.6,25.7,29.97,NNW,333,0.0,0.0,53,0.00,,,0.00,VWS V12.08,2013-02-08 01:23:00,
2013-02-07 20:28:00,41.6,25.7,29.97,SSE,168,0.0,0.0,53,0.00,,,0.00,VWS V12.08,2013-02-08 01:28:00,
2013-02-07 20:33:00,41.6,25.7,29.97,SE,143,0.0,0.0,53,0.00,,,0.00,VWS V12.08,2013-02-08 01:33:00,
2013-02-07 20:38:00,41.8,25.9,29.97,SSE,163,0.0,0.0,53,0.00,,,0.00,VWS V12.08,2013-02-08 01:38:00,
2013-02-07 20:43:00,41.6,25.7,29.97,SSW,211,0.0,0.0,53,0.00,,,0.00,VWS V12.08,2013-02-08 01:43:00,
2013-02-07 20:48:00,41.4,25.6,29.97,ENE,69,0.0,0.0,53,0.00,,,0.00,VWS V12.08,2013-02-08 01:48:00,
2013-02-07 20:53:00,41.4,25.6,29.97,South,170,0.0,0.0,53,0.00,,,0.00,VWS V12.08,2013-02-08 01:53:00,
2013-02-07 20:58:00,41.2,25.9,29.97,NE,35,0.0,0.0,54,0.00,,,0.00,VWS V12.08,2013-02-08 01:58:00,
2013-02-07 21:03:00,41.0,25.7,29.97,ESE,115,0.0,0.0,54,0.00,,,0.00,VWS V12.08,2013-02-08 02:03:00,
2013-02-07 21:08:00,40.7,25.8,29.97,NNE,16,0.0,0.0,55,0.00,,,0.00,VWS V12.08,2013-02-08 02:08:00,
2013-02-07 21:13:00,40.3,25.9,29.97,North,0,0.0,0.0,56,0.00,,,0.00,VWS V12.08,2013-02-08 02:13:00,
2013-02-07 21:18:00,40.0,26.0,29.97,NNE,19,0.0,0.0,57,0.00,,,0.00,VWS V12.08,2013-02-08 02:18:00,
2013-02-07 21:23:00,40.0,26.4,29.97,North,3,0.0,0.0,58,0.00,,,0.00,VWS V12.08,2013-02-08 02:23:00,
2013-02-07 21:28:00,39.8,26.6,29.97,NNE,22,0.0,0.0,59,0.00,,,0.00,VWS V12.08,2013-02-08 02:28:00,
2013-02-07 21:33:00,39.8,26.6,29.94,ESE,102,0.0,0.0,59,0.00,,,0.00,VWS V12.08,2013-02-08 02:33:00,
2013-02-07 21:38:00,40.0,26.8,29.94,NNE,18,0.0,0.0,59,0.00,,,0.00,VWS V12.08,2013-02-08 02:38:00,
2013-02-07 21:43:00,39.8,26.6,29.94,ENE,57,0.0,0.0,59,0.00,,,0.00,VWS V12.08,2013-02-08 02:43:00,
2013-02-07 21:48:00,39.8,26.6,29.94,North,357,0.0,0.0,59,0.00,,,0.00,VWS V12.08,2013-02-08 02:48:00,
2013-02-07 21:53:00,39.8,26.6,29.94,ESE,110,0.0,0.0,59,0.00,,,0.00,VWS V12.08,2013-02-08 02:53:00,
2013-02-07 21:58:00,39.8,26.6,29.94,NE,46,0.0,0.0,59,0.00,,,0.00,VWS V12.08,2013-02-08 02:58:00,
2013-02-07 22:03:00,40.1,27.0,29.94,SE,126,0.0,0.0,59,0.00,,,0.00,VWS V12.08,2013-02-08 03:03:00,
2013-02-07 22:08:00,40.3,27.1,29.94,NNE,14,0.0,0.0,59,0.00,,,0.00,VWS V12.08,2013-02-08 03:08:00,
2013-02-07 22:13:00,40.3,27.1,29.94,NE,44,0.0,0.0,59,0.00,,,0.00,VWS V12.08,2013-02-08 03:13:00,
2013-02-07 22:18:00,40.1,27.0,29.94,South,173,0.0,0.0,59,0.00,,,0.00,VWS V12.08,2013-02-08 03:18:00,
2013-02-07 22:23:00,40.0,27.2,29.94,ESE,102,0.0,0.0,60,0.00,,,0.00,VWS V12.08,2013-02-08 03:23:00,
2013-02-07 22:28:00,40.0,27.2,29.94,East,87,0.0,0.0,60,0.00,,,0.00,VWS V12.08,2013-02-08 03:28:00,
2013-02-07 22:33:00,40.1,27.4,29.94,West,274,0.0,0.0,60,0.00,,,0.00,VWS V12.08,2013-02-08 03:33:00,
2013-02-07 22:38:00,40.3,27.5,29.94,ESE,120,0.0,0.0,60,0.00,,,0.00,VWS V12.08,2013-02-08 03:38:00,
2013-02-07 22:43:00,40.3,27.5,29.94,SE,127,0.0,0.0,60,0.00,,,0.00,VWS V12.08,2013-02-08 03:43:00,
2013-02-07 22:48:00,40.3,27.5,29.94,SE,134,0.0,0.0,60,0.00,,,0.00,VWS V12.08,2013-02-08 03:48:00,
2013-02-07 22:53:00,40.5,27.7,29.94,WNW,293,0.0,0.0,60,0.00,,,0.00,VWS V12.08,2013-02-08 03:53:00,
2013-02-07 22:58:00,40.5,27.7,29.94,NW,304,0.0,0.0,60,0.00,,,0.00,VWS V12.08,2013-02-08 03:58:00,
2013-02-07 23:03:00,40.3,28.0,29.91,NNE,15,0.0,0.0,61,0.00,,,0.00,VWS V12.08,2013-02-08 04:03:00,
2013-02-07 23:08:00,40.1,27.8,29.91,ENE,72,0.0,0.0,61,0.00,,,0.00,VWS V12.08,2013-02-08 04:08:00,
2013-02-07 23:13:00,40.1,28.2,29.91,SSE,167,0.0,0.0,62,0.00,,,0.00,VWS V12.08,2013-02-08 04:13:00,
2013-02-07 23:18:00,40.0,27.6,29.91,SE,138,0.0,0.0,61,0.00,,,0.00,VWS V12.08,2013-02-08 04:18:00,
2013-02-07 23:23:00,40.0,28.0,29.91,SW,223,0.0,0.0,62,0.00,,,0.00,VWS V12.08,2013-02-08 04:23:00,
2013-02-07 23:28:00,40.0,28.0,29.91,NW,304,0.0,0.0,62,0.00,,,0.00,VWS V12.08,2013-02-08 04:28:00,
2013-02-07 23:33:00,40.0,28.0,29.91,South,171,0.0,0.0,62,0.00,,,0.00,VWS V12.08,2013-02-08 04:33:00,
2013-02-07 23:38:00,40.0,28.4,29.91,ESE,123,0.0,0.0,63,0.00,,,0.00,VWS V12.08,2013-02-08 04:38:00,
2013-02-07 23:43:00,40.0,28.4,29.91,WNW,285,0.0,0.0,63,0.00,,,0.00,VWS V12.08,2013-02-08 04:43:00,
2013-02-07 23:48:00,40.1,28.6,29.91,SSE,165,0.0,0.0,63,0.00,,,0.00,VWS V12.08,2013-02-08 04:48:00,
2013-02-07 23:53:00,40.0,28.4,29.91,South,170,0.0,0.0,63,0.00,,,0.00,VWS V12.08,2013-02-08 04:53:00,
2013-02-07 23:58:00,40.1,28.6,29.91,SSW,205,0.0,0.0,63,0.00,,,0.00,VWS V12.08,2013-02-08 04:58:00,